World > North America > United States > North Carolina

Hourly Matthews, NC Regional Weather

Feedback E-mail the Weather

Latest News

Matthews, NC Weather Maps

°F °C°F °C
Matthews Weather Map
UTC Time: 5/27/2022, 21:42
Your Time:

Matthews, NC Regional Weather

Expires:202205272100;;663837
ASUS42 KRAH 272010
RWRRAH
NORTH CAROLINA WEATHER ROUNDUP
NATIONAL WEATHER SERVICE RALEIGH NC
400 PM EDT FRI MAY 27 2022

NOTE: "FAIR" INDICATES FEW OR NO CLOUDS BELOW 12,000 FEET WITH NO
SIGNIFICANT WEATHER AND/OR OBSTRUCTIONS TO VISIBILITY.


NCZ021-022-025-041-071-084-088-272100-
CENTRAL NORTH CAROLINA
  
CITY           SKY/WX    TMP DP  RH WIND       PRES   REMARKS
CHARLOTTE      MOSUNNY   82  60  47 S16       29.84F                  
GREENSBORO     PTSUNNY   79  60  52 SW17      29.80F                  
WINSTON-SALEM  MOSUNNY   82  56  40 SW9G20    29.81F                  
RALEIGH-DURHAM CLOUDY    78  68  71 S13       29.82F                  
FORT BRAGG     CLOUDY    76  69  77 S10G18    29.82S                  
FAYETTEVILLE   CLOUDY    78  68  71 S16       29.84F                  
BURLINGTON     PTSUNNY   81  66  60 S10G22    29.80F                  
ROXBORO        PTSUNNY   75  68  78 S13G20    29.83F                  
HENDERSON      MOSUNNY   75  68  77 S12G18    29.82F                  
LOUISBURG      PTSUNNY   77  68  73 S8G17     29.86F                  
LAURINBURG     PTSUNNY   80  70  71 S18G28    29.85F                  
$$
 

SKY/WX - Weather  TMP - Temperature  DP - Dew Point  RH - Humidity
WIND - Wind Direction/Speed PRES - Barometric Pressure VSB - Visibility
WCI - Wind Chill Index E13G22 Wind - East Wind 13 mph/Gusts of 22 mph

Trending Headlines

Matthews Radar Loop



Matthews Quick Facts


National Two Day Weather Forecast


E-mail the Matthews Weather Forecast

Voice your opinion or tell us about page issues...